DW8485 Weather Reports


Display with metric or nautical units.
time (UTC)temp
F
wind
direction
speed
MPH
gust
MPH
rain 1hr
in
rain 24hr
in
rain mn
in
humidity
%
barometer
mb
20260906111005 72 11 0.0 0.0 0.00 0.00 0.00 93 1009.8
20260906110505 72 11 0.0 0.0 0.00 0.00 0.00 93 1009.8
20260906110005 72 11 0.0 0.0 0.00 0.00 0.00 93 1009.8
20260906105505 72 11 0.0 0.0 0.00 0.00 0.00 93 1009.8
20260906105005 72 11 0.0 0.0 0.00 0.00 0.00 93 1009.8
20260906104505 72 11 0.0 0.0 0.00 0.00 0.00 93 1009.8
20260906104005 72 11 0.0 0.0 0.00 0.00 0.00 93 1009.8
20260906103505 73 11 0.0 0.0 0.00 0.00 0.00 93 1009.7
20260906103005 73 11 0.0 0.0 0.00 0.00 0.00 93 1009.7
20260906102006 73 11 0.0 0.0 0.00 0.00 0.00 93 1009.6
20260906101505 73 11 0.0 1.0 0.00 0.00 0.00 93 1009.6
20260906101005 73 11 0.0 1.0 0.00 0.00 0.00 92 1009.6
20260906100505 73 11 0.0 1.0 0.00 0.00 0.00 92 1009.6
20260906100006 73 11 0.0 0.0 0.00 0.00 0.00 92 1009.6
20260906095006 73 11 0.0 0.0 0.00 0.00 0.00 92 1009.6
20260906094505 73 11 0.0 0.0 0.00 0.00 0.00 92 1009.3
20260906094005 73 11 0.0 0.0 0.00 0.00 0.00 92 1009.3
20260906093506 73 11 0.0 0.0 0.00 0.00 0.00 92 1009.3
20260906093005 73 11 0.0 0.0 0.00 0.00 0.00 92 1009.3
20260906092505 73 11 0.0 0.0 0.00 0.00 0.00 92 1009.3
20260906091505 73 11 0.0 0.0 0.00 0.00 0.00 92 1009.3
20260906091005 73 11 0.0 0.0 0.00 0.00 0.00 92 1009.3
20260906090506 73 11 0.0 0.0 0.00 0.00 0.00 92 1009.3
20260906090005 73 11 0.0 1.0 0.00 0.00 0.00 92 1009.3
20260906085505 73 11 0.0 2.0 0.00 0.00 0.00 92 1009.3
20260906085006 73 11 0.0 2.0 0.00 0.00 0.00 92 1009.3
20260906084505 73 11 0.0 0.0 0.00 0.00 0.00 91 1009.3
20260906084005 73 11 0.0 0.0 0.00 0.00 0.00 91 1009.3
20260906083005 73 11 0.0 0.0 0.00 0.00 0.00 91 1009.3
20260906082505 74 11 0.0 0.0 0.00 0.00 0.00 91 1009.3
20260906082005 74 11 0.0 1.0 0.00 0.00 0.00 91 1009.3
20260906081505 74 11 0.0 1.0 0.00 0.00 0.00 91 1009.3
20260906081006 74 11 0.0 0.0 0.00 0.00 0.00 91 1009.3
20260906080505 74 11 0.0 0.0 0.00 0.00 0.00 91 1009.9
20260906075505 74 11 0.0 0.0 0.00 0.00 0.00 91 1009.9
20260906075005 74 11 0.0 0.0 0.00 0.00 0.00 91 1009.9
20260906074505 74 11 0.0 0.0 0.00 0.00 0.00 90 1009.9
20260906074005 74 11 0.0 0.0 0.00 0.00 0.00 90 1009.9
20260906073006 74 11 0.0 0.0 0.00 0.00 0.00 90 1009.9
20260906072505 74 11 0.0 0.0 0.00 0.00 0.00 90 1009.9
20260906071505 75 11 0.0 0.0 0.00 0.00 0.00 89 1009.9
20260906071005 75 11 0.0 0.0 0.00 0.00 0.00 89 1009.9
20260906070505 75 11 0.0 0.0 0.00 0.00 0.00 89 1010.2
20260906070005 75 11 0.0 0.0 0.00 0.00 0.00 88 1010.2
20260906065505 75 11 0.0 0.0 0.00 0.00 0.00 89 1010.2
20260906065005 75 11 0.0 0.0 0.00 0.00 0.00 89 1010.2
20260906064505 75 11 0.0 0.0 0.00 0.00 0.00 89 1010.2
20260906064006 75 11 0.0 0.0 0.00 0.00 0.00 88 1010.2
20260906063505 75 11 0.0 0.0 0.00 0.00 0.00 88 1010.2
20260906063006 75 11 0.0 0.0 0.00 0.00 0.00 87 1010.2
20260906062006 76 11 0.0 0.0 0.00 0.00 0.00 87 1010.2
20260906061505 76 11 0.0 0.0 0.00 0.00 0.00 87 1010.2
20260906061005 76 11 0.0 0.0 0.00 0.00 0.00 86 1010.2
20260906060005 76 11 0.0 0.0 0.00 0.00 0.00 86 1010.2
20260906055505 76 11 0.0 0.0 0.00 0.00 0.00 86 1010.2
20260906055005 76 11 0.0 0.0 0.00 0.00 0.00 85 1010.0
20260906054505 76 11 0.0 0.0 0.00 0.00 0.00 85 1010.0
20260906054006 76 11 0.0 0.0 0.00 0.00 0.00 85 1010.0
20260906053506 77 11 0.0 0.0 0.00 0.00 0.00 85 1010.0
20260906053006 77 11 0.0 0.0 0.00 0.00 0.00 85 1010.7
20260906052505 77 11 0.0 0.0 0.00 0.00 0.00 85 1010.7
20260906052006 77 11 0.0 0.0 0.00 0.00 0.00 85 1010.7
20260906051505 77 11 0.0 0.0 0.00 0.00 0.00 84 1010.7
20260906051006 77 11 0.0 0.0 0.00 0.00 0.00 84 1010.7
20260906050506 78 11 0.0 0.0 0.00 0.00 0.00 84 1010.7
20260906050005 78 11 0.0 0.0 0.00 0.00 0.00 84 1010.7
20260906045506 78 11 0.0 0.0 0.00 0.00 0.00 84 1010.7
20260906045006 78 11 0.0 0.0 0.00 0.00 0.00 83 1010.7
20260906044506 78 11 0.0 0.0 0.00 0.00 0.00 83 1010.7
20260906044005 78 11 0.0 0.0 0.00 0.00 0.00 83 1010.8
20260906043505 78 11 0.0 0.0 0.00 0.00 0.00 82 1010.8
20260906043005 78 11 0.0 1.0 0.00 0.00 0.00 83 1010.8
20260906042505 79 11 1.0 3.0 0.00 0.00 0.00 82 1010.8
20260906042006 79 38 0.0 0.0 0.00 0.00 0.00 82 1010.7
20260906041505 79 38 0.0 0.0 0.00 0.00 0.00 82 1010.7
20260906041006 79 38 0.0 0.0 0.00 0.00 0.00 82 1010.7
20260906040005 80 38 2.0 3.0 0.00 0.00 0.00 81 1010.7
20260906035505 80 12 1.0 3.0 0.00 0.00 0.00 80 1010.7
20260906035006 80 46 2.0 3.0 0.00 0.00 0.00 80 1010.7
20260906034505 80 44 0.0 2.0 0.00 0.00 0.00 80 1010.7
20260906033506 81 44 1.0 3.0 0.00 0.00 0.00 79 1010.7
20260906033005 81 45 1.0 3.0 0.00 0.00 0.00 80 1010.7
20260906032505 81 327 2.0 5.0 0.00 0.00 0.00 80 1010.8
20260906032006 82 325 2.0 5.0 0.00 0.00 0.00 82 1010.8
20260906031505 82 321 2.0 3.0 0.00 0.00 0.00 84 1010.8
20260906031006 83 210 1.0 3.0 0.00 0.00 0.00 86 1010.0
20260906030505 83 207 1.0 2.0 0.00 0.00 0.00 87 1010.0
20260906030006 83 207 0.0 0.0 0.00 0.00 0.00 87 1010.0
20260906025505 83 207 1.0 1.0 0.00 0.00 0.00 87 1010.0
20260906025005 83 207 0.0 2.0 0.00 0.00 0.00 86 1010.0
20260906024505 84 207 1.0 2.0 0.00 0.00 0.00 86 1010.0
20260906024006 84 207 0.0 1.0 0.00 0.00 0.00 86 1010.0
20260906023005 84 207 2.0 3.0 0.00 0.00 0.00 86 1010.0
20260906022005 84 165 1.0 5.0 0.00 0.00 0.00 86 1010.1
20260906021505 84 211 2.0 6.0 0.00 0.00 0.00 86 1010.1
20260906021006 84 205 3.0 6.0 0.00 0.00 0.00 86 1010.0
20260906020006 84 178 1.0 6.0 0.00 0.00 0.00 86 1008.3
20260906015505 84 209 3.0 8.0 0.00 0.00 0.00 85 1008.3
20260906015005 84 196 2.0 5.0 0.00 0.00 0.00 84 1008.3
20260906014006 84 336 1.0 3.0 0.00 0.00 0.00 79 1008.3
20260906013506 84 336 1.0 3.0 0.00 0.00 0.00 78 1008.3
20260906013005 84 318 0.0 2.0 0.00 0.00 0.00 78 1008.3
20260906012006 85 318 0.0 0.0 0.00 0.00 0.00 75 1009.0
20260906011505 85 318 0.0 0.0 0.00 0.00 0.00 75 1009.0
20260906011005 85 318 0.0 2.0 0.00 0.00 0.00 74 1009.5
20260906010505 85 318 0.0 3.0 0.00 0.00 0.00 74 1010.0
20260906010005 85 334 0.0 2.0 0.00 0.00 0.00 76 1010.0
20260906005505 85 334 2.0 3.0 0.00 0.00 0.00 78 1010.0
20260906005005 86 197 0.0 2.0 0.00 0.00 0.00 83 1010.0
20260906004505 86 196 1.0 3.0 0.00 0.00 0.00 83 1010.0
20260906004005 86 208 1.0 3.0 0.00 0.00 0.00 83 1010.0
20260906003506 86 229 2.0 5.0 0.00 0.00 0.00 82 1010.0
20260906003005 86 254 0.0 3.0 0.00 0.00 0.00 82 1010.0
20260906002506 87 274 2.0 3.0 0.00 0.00 0.00 82 1010.0
20260906002005 87 291 1.0 7.0 0.00 0.00 0.00 81 1010.0
20260906001505 87 207 2.0 5.0 0.00 0.00 0.00 81 1010.0
20260906000505 87 176 5.0 8.0 0.00 0.00 0.00 80 1010.3
20260906000005 87 189 2.0 5.0 0.00 0.00 0.00 80 1010.3
20260905235505 88 198 3.0 7.0 0.00 0.00 0.00 79 1010.3
20260905235006 88 205 0.0 7.0 0.00 0.00 0.00 79 1009.7
20260905234505 88 181 1.0 3.0 0.00 0.00 0.00 79 1009.7
20260905234006 88 207 3.0 5.0 0.00 0.00 0.00 79 1009.7
20260905233505 88 214 2.0 8.0 0.00 0.00 0.00 78 1009.7
20260905233005 88 204 2.0 3.0 0.00 0.00 0.00 78 1009.7
20260905232505 89 228 1.0 3.0 0.00 0.00 0.00 78 1009.7
20260905232006 89 201 2.0 5.0 0.00 0.00 0.00 78 1009.7
20260905231505 89 204 3.0 6.0 0.00 0.00 0.00 77 1009.7
20260905231006 89 185 3.0 6.0 0.00 0.00 0.00 77 1009.7
20260905230506 89 208 2.0 5.0 0.00 0.00 0.00 77 1009.7
20260905230006 90 215 3.0 6.0 0.00 0.00 0.00 76 1009.7
20260905225504 90 211 2.0 6.0 0.00 0.00 0.00 76 1009.7
20260905225006 90 184 1.0 3.0 0.00 0.00 0.00 76 1009.3
20260905224504 90 182 1.0 3.0 0.00 0.00 0.00 76 1009.3
20260905224005 91 223 2.0 5.0 0.00 0.00 0.00 76 1009.3
20260905223005 91 155 2.0 5.0 0.00 0.00 0.00 75 1009.3
20260905222505 91 164 2.0 6.0 0.00 0.00 0.00 74 1009.3
20260905222005 92 192 3.0 5.0 0.00 0.00 0.00 73 1009.3
20260905221504 92 188 1.0 2.0 0.00 0.00 0.00 73 1009.3
20260905221005 92 186 1.0 3.0 0.00 0.00 0.00 72 1009.3
20260905220005 93 187 2.0 9.0 0.00 0.00 0.00 71 1009.3
20260905215505 94 116 2.0 6.0 0.00 0.00 0.00 70 1009.1
20260905215006 94 165 2.0 5.0 0.00 0.00 0.00 66 1009.1
20260905214505 94 219 0.0 1.0 0.00 0.00 0.00 62 1009.1
20260905214006 94 219 0.0 2.0 0.00 0.00 0.00 60 1009.1
20260905213505 94 219 0.0 3.0 0.00 0.00 0.00 61 1009.1
20260905213006 95 215 1.0 3.0 0.00 0.00 0.00 59 1008.9
20260905212505 95 214 1.0 3.0 0.00 0.00 0.00 59 1008.9
20260905212005 95 214 3.0 3.0 0.00 0.00 0.00 58 1008.9
20260905211005 96 225 1.0 2.0 0.00 0.00 0.00 58 1008.9
20260905210505 96 202 1.0 3.0 0.00 0.00 0.00 57 1008.9
20260905210005 97 200 0.0 2.0 0.00 0.00 0.00 57 1008.9
20260905205005 98 188 1.0 2.0 0.00 0.00 0.00 56 1008.9
20260905204505 98 188 1.0 5.0 0.00 0.00 0.00 57 1008.9
20260905204005 98 340 1.0 3.0 0.00 0.00 0.00 56 1009.5
20260905203505 98 344 0.0 2.0 0.00 0.00 0.00 60 1009.5
20260905203005 98 343 1.0 2.0 0.00 0.00 0.00 58 1009.5
20260905202505 98 343 2.0 3.0 0.00 0.00 0.00 56 1009.5
20260905202005 98 342 1.0 3.0 0.00 0.00 0.00 56 1009.5
20260905201505 98 338 1.0 3.0 0.00 0.00 0.00 56 1009.5
20260905200505 98 190 1.0 3.0 0.00 0.00 0.00 56 1009.5
20260905200005 98 192 2.0 3.0 0.00 0.00 0.00 57 1009.5
20260905195505 98 218 2.0 3.0 0.00 0.00 0.00 56 1009.5
20260905195005 98 224 2.0 3.0 0.00 0.00 0.00 58 1009.5
20260905194506 98 342 1.0 3.0 0.00 0.00 0.00 61 1009.5
20260905194005 98 236 2.0 3.0 0.00 0.00 0.00 60 1009.5
20260905193505 97 238 2.0 5.0 0.00 0.00 0.00 60 1009.5
20260905193006 97 126 2.0 3.0 0.00 0.00 0.00 58 1009.5
20260905192006 97 317 2.0 3.0 0.00 0.00 0.00 60 1009.8
20260905191505 97 196 0.0 3.0 0.00 0.00 0.00 64 1009.8
20260905191005 96 196 2.0 5.0 0.00 0.00 0.00 60 1011.1
20260905190506 96 275 1.0 3.0 0.00 0.00 0.00 64 1011.1
20260905190004 96 332 2.0 3.0 0.00 0.00 0.00 62 1011.1
20260905185505 96 198 1.0 6.0 0.00 0.00 0.00 64 1011.1
20260905185006 95 228 2.0 3.0 0.00 0.00 0.00 63 1011.1
20260905183505 95 347 3.0 5.0 0.00 0.00 0.00 62 1011.1
20260905182505 95 224 1.0 3.0 0.00 0.00 0.00 65 1011.1
20260905182005 95 301 1.0 3.0 0.00 0.00 0.00 66 1011.1
20260905181505 94 340 2.0 6.0 0.00 0.00 0.00 66 1011.1
20260905181006 94 325 3.0 6.0 0.00 0.00 0.00 65 1011.1
20260905180505 94 154 2.0 3.0 0.00 0.00 0.00 66 1011.1
20260905180005 94 320 2.0 5.0 0.00 0.00 0.00 66 1011.1
20260905175505 94 270 1.0 5.0 0.00 0.00 0.00 66 1011.1
20260905175005 93 170 2.0 5.0 0.00 0.00 0.00 67 1011.1
20260905174505 93 175 2.0 9.0 0.00 0.00 0.00 66 1011.7
20260905174005 93 243 1.0 3.0 0.00 0.00 0.00 69 1011.7
20260905173506 92 336 0.0 3.0 0.00 0.00 0.00 66 1011.7
20260905173006 92 229 1.0 3.0 0.00 0.00 0.00 68 1011.7
20260905172505 92 333 1.0 3.0 0.00 0.00 0.00 69 1011.7
20260905171505 92 209 2.0 5.0 0.00 0.00 0.00 68 1011.7
20260905171005 93 347 2.0 6.0 0.00 0.00 0.00 67 1011.6
20260905170506 93 339 1.0 3.0 0.00 0.00 0.00 69 1011.6
20260905170005 93 173 1.0 6.0 0.00 0.00 0.00 70 1012.9
20260905165505 92 202 2.0 5.0 0.00 0.00 0.00 69 1012.9
20260905165005 92 178 1.0 5.0 0.00 0.00 0.00 68 1012.9
20260905164505 92 206 2.0 3.0 0.00 0.00 0.00 71 1012.9
20260905164006 91 240 2.0 5.0 0.00 0.00 0.00 72 1012.9
20260905163506 91 319 2.0 6.0 0.00 0.00 0.00 71 1012.9
20260905163005 91 228 1.0 3.0 0.00 0.00 0.00 74 1012.9
20260905162505 90 329 2.0 5.0 0.00 0.00 0.00 73 1012.9
20260905162005 90 321 2.0 5.0 0.00 0.00 0.00 74 1012.9
20260905161505 89 327 1.0 6.0 0.00 0.00 0.00 75 1012.9
20260905160506 88 187 1.0 3.0 0.00 0.00 0.00 78 1012.9
20260905160005 87 237 1.0 3.0 0.00 0.00 0.00 78 1012.9
20260905155505 87 338 2.0 5.0 0.00 0.00 0.00 77 1012.9
20260905155005 87 326 2.0 5.0 0.00 0.00 0.00 78 1013.2
20260905154505 86 213 2.0 3.0 0.00 0.00 0.00 81 1013.2
20260905154006 86 201 2.0 3.0 0.00 0.00 0.00 81 1013.2
20260905153505 85 227 2.0 3.0 0.00 0.00 0.00 82 1013.2
20260905153005 85 318 2.0 5.0 0.00 0.00 0.00 82 1013.2
20260905152505 85 335 1.0 3.0 0.00 0.00 0.00 83 1013.2
20260905152005 85 330 2.0 5.0 0.00 0.00 0.00 83 1013.2
20260905151505 84 327 1.0 6.0 0.00 0.00 0.00 84 1013.2
20260905145505 84 326 3.0 5.0 0.00 0.00 0.00 85 1013.2
20260905144505 83 199 2.0 3.0 0.00 0.00 0.00 86 1013.3
20260905144006 83 186 1.0 6.0 0.00 0.00 0.00 87 1013.3
20260905143505 83 194 2.0 6.0 0.00 0.00 0.00 87 1013.3
20260905143005 82 329 2.0 6.0 0.00 0.00 0.00 88 1013.3
20260905142505 82 227 2.0 5.0 0.00 0.00 0.00 89 1013.3
20260905142005 82 310 2.0 5.0 0.00 0.00 0.00 90 1013.3
20260905141005 81 281 1.0 5.0 0.00 0.00 0.00 92 1013.3
20260905140505 81 202 4.0 7.0 0.00 0.00 0.00 93 1013.3
20260905140005 81 208 2.0 6.0 0.00 0.00 0.00 93 1013.3
20260905135005 80 330 2.0 3.0 0.00 0.00 0.00 95 1013.3
20260905134505 80 343 2.0 3.0 0.00 0.00 0.00 95 1013.3
20260905134005 80 335 2.0 3.0 0.00 0.00 0.00 95 1013.3
20260905133505 80 337 2.0 3.0 0.00 0.00 0.00 95 1013.3
20260905132505 79 254 2.0 3.0 0.00 0.00 0.00 95 1013.3
20260905132005 79 343 2.0 3.0 0.00 0.00 0.00 95 1013.3
20260905131005 79 312 1.0 3.0 0.00 0.00 0.00 97 1013.3
20260905130505 79 207 2.0 3.0 0.00 0.00 0.00 100 1013.3
20260905130005 79 320 1.0 3.0 0.00 0.00 0.00 100 1013.3
20260905125505 79 234 0.0 3.0 0.00 0.00 0.00 95 1013.3
20260905125005 78 213 1.0 6.0 0.00 0.00 0.00 96 1013.3
20260905124505 78 254 1.0 2.0 0.00 0.00 0.00 95 1013.3
20260905124006 78 252 1.0 2.0 0.00 0.00 0.00 95 1013.3
20260905123505 78 304 1.0 3.0 0.00 0.00 0.00 95 1013.4
20260905123005 78 317 1.0 5.0 0.00 0.00 0.00 95 1013.4
20260905122005 77 302 2.0 3.0 0.00 0.00 0.00 95 1013.4
20260905121505 77 201 0.0 0.0 0.00 0.00 0.00 95 1013.4
20260905121006 77 201 0.0 0.0 0.00 0.00 0.00 95 1013.3
20260905120007 76 201 0.0 0.0 0.00 0.00 0.00 94 1013.3
20260905115508 76 201 0.0 0.0 0.00 0.00 0.00 94 1013.1
20260905114505 76 201 0.0 0.0 0.00 0.00 0.00 94 1013.1
20260905114006 76 201 0.0 0.0 0.00 0.00 0.00 94 1013.1
20260905113506 76 201 0.0 0.0 0.00 0.00 0.00 94 1013.1
20260905113005 76 201 0.0 0.0 0.00 0.00 0.00 94 1013.1
20260905112005 76 201 0.0 0.0 0.00 0.00 0.00 93 1013.1
20260905111505 76 201 0.0 0.0 0.00 0.00 0.00 93 1013.1